Date String (YYYY-MM-DD hh:mm:ss) UTC,Instrument flags,Ambient pressure (hPa),Sample flow (lpm),Bypass flow (lpm),Sample temperature (°C),Ambient temperature (°C),ASC tube jacket temperature (°C),LED temperature (°C),Box temperature (°C),Sample RH (%),Span deviation,Mass concentration (μg/m³),Mass concentration (μg/m³),Mass concentration (μg/m³)
DateTimeUTC,F1_M11,P_M11,Q1_M11,Q2_M11,T1_M11,T2_M11,T3_M11,T4_M11,T5_M11,U1_M11,ZSPAN_M11,X0_M11,X2_M11,X1_M11
2021-11-25 21:00:00,,0832.1,4.99,0.00,27.9,27.1,00.0,36.7,29.7,05.3,0000.0,0004.14,0002.61,0002.00
2021-11-25 21:01:00,,0832.1,5.01,0.00,27.9,27.1,00.0,36.8,29.7,05.2,0000.0,0004.48,0002.44,0001.86
2021-11-25 21:02:00,,0832.0,5.00,0.00,27.9,27.2,00.0,36.8,29.7,05.2,0000.0,0005.31,0002.31,0001.71
2021-11-25 21:03:00,,0832.1,5.00,0.00,27.9,27.2,00.0,36.8,29.7,05.3,0000.0,0004.94,0002.08,0001.53
2021-11-25 21:04:00,,0832.1,5.01,0.00,27.9,27.2,00.0,36.8,29.8,05.3,0000.0,0005.14,0001.81,0001.32
2021-11-25 21:05:00,,0832.0,4.98,0.00,27.9,27.2,00.0,36.8,29.8,05.3,0000.0,0005.67,0001.55,0001.10
2021-11-25 21:06:00,,0832.1,5.01,0.00,27.9,27.1,00.0,36.8,29.7,05.2,0000.0,0005.57,0001.34,0000.92
2021-11-25 21:07:00,,0832.1,5.01,0.00,28.0,27.1,00.0,36.8,29.7,05.2,0000.0,0005.58,0001.26,0000.85
2021-11-25 21:08:00,,0832.1,5.00,0.00,28.0,27.2,00.0,36.8,29.8,05.3,0000.0,0005.75,0001.30,0000.85
2021-11-25 21:09:00,,0832.1,4.99,0.00,28.0,27.1,00.0,36.9,29.8,05.3,0000.0,0005.83,0001.34,0000.86
2021-11-25 21:10:00,,0832.1,5.01,0.00,28.0,27.1,00.0,36.9,29.8,05.3,0000.0,0006.03,0001.41,0000.86
2021-11-25 21:11:00,,0832.1,5.01,0.00,28.0,27.1,00.0,36.9,29.8,05.3,0000.0,0006.01,0001.41,0000.85
2021-11-25 21:12:00,,0832.1,5.01,0.00,28.0,27.1,00.0,36.9,29.8,05.3,0000.0,0005.62,0001.39,0000.84
2021-11-25 21:13:00,,0832.1,5.00,0.00,28.0,27.1,00.0,36.9,29.8,05.3,0000.0,0004.51,0001.38,0000.82
2021-11-25 21:14:00,,0832.1,4.99,0.00,28.0,27.1,00.0,36.9,29.8,05.3,0000.0,0004.65,0001.33,0000.81
2021-11-25 21:15:00,,0832.0,5.01,0.00,28.0,27.1,00.0,36.9,29.8,05.3,0000.0,0004.61,0001.34,0000.80
2021-11-25 21:16:00,,0832.0,5.01,0.00,28.0,27.1,00.0,36.9,29.8,05.4,0000.0,0003.51,0001.36,0000.80
2021-11-25 21:17:00,,0832.0,4.98,0.00,28.0,27.1,00.0,36.9,29.8,05.3,0000.0,0003.32,0001.34,0000.79
2021-11-25 21:18:00,,0832.1,5.01,0.00,28.0,27.1,00.0,36.9,29.8,05.3,0000.0,0003.02,0001.31,0000.78
2021-11-25 21:19:00,,0832.1,5.00,0.00,28.0,27.1,00.0,36.9,29.7,05.3,0000.0,0003.76,0001.30,0000.77
2021-11-25 21:20:00,,0832.1,5.00,0.00,28.0,27.1,00.0,36.9,29.8,05.3,0000.0,0003.72,0001.27,0000.76
2021-11-25 21:21:00,,0832.1,5.01,0.00,28.0,27.1,00.0,37.0,29.8,05.3,0000.0,0003.62,0001.24,0000.77
2021-11-25 21:22:00,,0832.0,5.00,0.00,28.0,27.0,00.0,37.0,29.7,05.3,0000.0,0003.47,0001.20,0000.78
2021-11-25 21:23:00,,0832.0,4.99,0.00,28.0,27.1,00.0,37.0,29.7,05.4,0000.0,0003.56,0001.20,0000.79
2021-11-25 21:24:00,,0832.1,5.01,0.00,28.0,27.1,00.0,37.0,29.8,05.4,0000.0,0004.28,0001.23,0000.80
2021-11-25 21:25:00,,0832.1,5.00,0.00,28.0,27.1,00.0,37.0,29.8,05.5,0000.0,0007.21,0001.31,0000.81
2021-11-25 21:26:00,,0832.0,4.99,0.00,28.0,27.1,00.0,37.0,29.7,05.5,0000.0,0008.14,0001.47,0000.82
2021-11-25 21:27:00,,0832.0,4.99,0.00,28.0,27.1,00.0,37.0,29.7,05.5,0000.0,0008.22,0001.52,0000.82
2021-11-25 21:28:00,,0832.0,5.01,0.00,28.0,27.0,00.0,37.0,29.7,05.5,0000.0,0008.27,0001.54,0000.83
2021-11-25 21:29:00,,0832.0,5.00,0.00,28.0,27.0,00.0,37.0,29.7,05.5,0000.0,0008.30,0001.55,0000.83
2021-11-25 21:30:00,,0831.9,4.99,0.00,28.0,27.1,00.0,37.0,29.7,05.5,0000.0,0007.87,0001.49,0000.83
2021-11-25 21:31:00,,0832.0,5.00,0.00,28.0,27.0,00.0,37.0,29.7,05.4,0000.0,0007.79,0001.49,0000.83
2021-11-25 21:32:00,,0832.0,5.00,0.00,28.0,27.0,00.0,37.0,29.7,05.5,0000.0,0007.85,0001.50,0000.81
2021-11-25 21:33:00,,0832.0,5.00,0.00,28.0,27.0,00.0,37.0,29.7,05.4,0000.0,0008.30,0001.50,0000.80
2021-11-25 21:34:00,,0832.1,4.99,0.00,28.0,27.0,00.0,37.0,29.7,05.3,0000.0,0008.27,0001.49,0000.78
2021-11-25 21:35:00,,0832.1,5.00,0.00,28.0,26.9,00.0,37.0,29.7,05.3,0000.0,0008.00,0001.52,0000.78
2021-11-25 21:36:00,,0832.1,5.01,0.00,28.0,26.9,00.0,37.0,29.7,05.3,0000.0,0005.87,0001.50,0000.77
2021-11-25 21:37:00,,0832.1,5.01,0.00,28.0,26.9,00.0,37.0,29.7,05.3,0000.0,0003.57,0001.35,0000.76
2021-11-25 21:38:00,,0832.1,5.00,0.00,28.0,26.9,00.0,37.0,29.7,05.4,0000.0,0003.23,0001.26,0000.76
2021-11-25 21:39:00,,0832.1,5.00,0.00,28.0,27.0,00.0,37.0,29.8,05.3,0000.0,0003.17,0001.24,0000.75
2021-11-25 21:40:00,,0832.1,4.99,0.00,28.0,27.0,00.0,37.0,29.7,05.3,0000.0,0003.23,0001.22,0000.75
2021-11-25 21:41:00,,0832.1,5.00,0.00,28.0,27.0,00.0,37.0,29.7,05.3,0000.0,0003.18,0001.23,0000.75
2021-11-25 21:42:00,,0832.1,5.01,0.00,28.0,27.0,00.0,37.0,29.8,05.3,0000.0,0003.03,0001.18,0000.74
2021-11-25 21:43:00,,0832.1,5.01,0.00,28.0,27.0,00.0,37.0,29.7,05.3,0000.0,0002.82,0001.13,0000.75
2021-11-25 21:44:00,,0832.1,4.98,0.00,28.0,27.0,00.0,37.0,29.7,05.3,0000.0,0002.03,0001.13,0000.75
2021-11-25 21:45:00,,0832.1,5.00,0.00,28.0,27.0,00.0,37.0,29.7,05.3,0000.0,0001.98,0001.12,0000.74
2021-11-25 21:46:00,,0832.1,5.01,0.00,28.0,27.1,00.0,37.0,29.8,05.3,0000.0,0001.88,0001.06,0000.74
2021-11-25 21:47:00,,0832.1,4.99,0.00,28.0,27.1,00.0,37.0,29.8,05.3,0000.0,0002.33,0001.03,0000.74
2021-11-25 21:48:00,,0832.1,5.01,0.00,28.1,27.1,00.0,37.0,29.8,05.3,0000.0,0002.26,0001.01,0000.74
2021-11-25 21:49:00,,0832.1,5.01,0.00,28.1,27.1,00.0,37.0,29.8,05.3,0000.0,0002.30,0001.04,0000.74
2021-11-25 21:50:00,,0832.1,4.99,0.00,28.1,27.0,00.0,37.0,29.8,05.3,0000.0,0002.26,0001.04,0000.75
2021-11-25 21:51:00,,0832.1,5.01,0.00,28.1,27.0,00.0,37.0,29.8,05.3,0000.0,0002.20,0001.04,0000.74
2021-11-25 21:52:00,,0832.1,5.00,0.00,28.1,27.0,00.0,37.0,29.8,05.3,0000.0,0002.07,0001.01,0000.73
2021-11-25 21:53:00,,0832.1,5.00,0.00,28.1,27.0,00.0,37.0,29.8,05.4,0000.0,0002.38,0001.03,0000.73
2021-11-25 21:54:00,,0832.2,5.00,0.00,28.1,27.0,00.0,37.0,29.8,05.4,0000.0,0002.59,0001.07,0000.74
2021-11-25 21:55:00,,0832.1,5.00,0.00,28.1,26.9,00.0,37.0,29.8,05.4,0000.0,0002.55,0001.05,0000.74
2021-11-25 21:56:00,,0832.1,5.02,0.00,28.1,26.9,00.0,37.0,29.8,05.4,0000.0,0002.53,0001.04,0000.74
2021-11-25 21:57:00,,0832.1,5.00,0.00,28.1,27.0,00.0,37.0,29.8,05.4,0000.0,0002.56,0001.04,0000.74
2021-11-25 21:58:00,,0832.1,5.00,0.00,28.1,27.0,00.0,37.0,29.8,05.4,0000.0,0002.18,0001.04,0000.74
2021-11-25 21:59:00,,0832.1,5.00,0.00,28.1,27.0,00.0,37.0,29.8,05.4,0000.0,0002.46,0001.07,0000.74
